TimeCST,TemperatureF,Dew PointF,Humidity,Sea Level PressureIn,VisibilityMPH,Wind Direction,Wind SpeedMPH,Gust SpeedMPH,PrecipitationIn,Events,Conditions,WindDirDegrees,DateUTC
12:15 AM,8.6,5.0,85,29.77,10.0,North,12.7,-,N/A,,Overcast,350,2014-02-01 06:15:00
12:35 AM,8.6,1.4,73,29.79,10.0,North,16.1,20.7,N/A,,Overcast,350,2014-02-01 06:35:00
12:55 AM,8.6,1.4,73,29.80,10.0,North,17.3,-,N/A,,Overcast,350,2014-02-01 06:55:00
1:15 AM,8.6,1.4,73,29.81,10.0,NNW,20.7,25.3,N/A,,Overcast,340,2014-02-01 07:15:00
1:35 AM,6.8,-0.4,72,29.82,10.0,NNW,17.3,-,N/A,,Overcast,340,2014-02-01 07:35:00
1:55 AM,5.0,-0.4,78,29.82,10.0,NNW,15.0,-,N/A,,Overcast,340,2014-02-01 07:55:00
2:15 AM,5.0,-0.4,78,29.83,10.0,NNW,20.7,-,N/A,Snow,Light Snow,340,2014-02-01 08:15:00
2:35 AM,3.2,-0.4,85,29.84,6.0,NNW,17.3,-,N/A,Rain,Freezing Rain,330,2014-02-01 08:35:00
2:55 AM,3.2,-0.4,85,29.86,7.0,NNW,13.8,-,N/A,Snow,Light Snow,340,2014-02-01 08:55:00
3:15 AM,1.4,-0.4,92,29.88,10.0,North,10.4,-,N/A,Snow,Light Snow,360,2014-02-01 09:15:00
3:35 AM,1.4,-2.2,85,29.89,10.0,North,11.5,-,N/A,,Overcast,360,2014-02-01 09:35:00
3:55 AM,-0.4,-2.2,92,29.90,9.0,North,10.4,-,N/A,Snow,Light Snow,360,2014-02-01 09:55:00
4:15 AM,-0.4,-4.0,85,29.91,10.0,North,9.2,-,N/A,,Overcast,350,2014-02-01 10:15:00
4:35 AM,-2.2,-5.8,85,29.92,10.0,North,6.9,-,N/A,,Mostly Cloudy,350,2014-02-01 10:35:00
4:55 AM,-4.0,-9.4,78,29.94,10.0,NNW,9.2,-,N/A,,Partly Cloudy,330,2014-02-01 10:55:00
5:15 AM,-4.0,-9.4,78,29.95,10.0,NNW,6.9,-,N/A,,Mostly Cloudy,330,2014-02-01 11:15:00
5:35 AM,-4.0,-9.4,78,29.95,10.0,NNW,9.2,-,N/A,,Partly Cloudy,330,2014-02-01 11:35:00
5:55 AM,-4.0,-9.4,78,29.96,10.0,NW,10.4,-,N/A,,Clear,320,2014-02-01 11:55:00
6:15 AM,-5.8,-9.4,84,29.98,10.0,NW,9.2,-,N/A,,Partly Cloudy,320,2014-02-01 12:15:00
6:35 AM,-7.6,-9999,N/A,29.98,10.0,NW,6.9,-,N/A,,Mostly Cloudy,310,2014-02-01 12:35:00
6:55 AM,-7.6,-11.2,84,29.99,10.0,NW,8.1,-,N/A,,Partly Cloudy,320,2014-02-01 12:55:00
7:15 AM,-9.4,-13.0,84,30.00,10.0,WNW,6.9,-,N/A,,Scattered Clouds,300,2014-02-01 13:15:00
7:35 AM,-7.6,-11.2,84,30.00,10.0,WNW,6.9,-,N/A,,Overcast,290,2014-02-01 13:35:00
7:55 AM,-5.8,-11.2,77,30.01,10.0,West,10.4,-,N/A,,Overcast,280,2014-02-01 13:55:00
8:15 AM,-4.0,-7.6,85,30.01,10.0,WNW,9.2,-,N/A,,Overcast,300,2014-02-01 14:15:00
8:35 AM,-2.2,-7.6,78,30.02,10.0,WNW,6.9,-,N/A,,Overcast,300,2014-02-01 14:35:00
8:55 AM,-2.2,-7.6,78,30.03,10.0,WNW,9.2,-,N/A,,Overcast,300,2014-02-01 14:55:00
9:15 AM,-2.2,-7.6,78,30.03,10.0,WNW,9.2,-,N/A,,Overcast,300,2014-02-01 15:15:00
9:35 AM,-2.2,-7.6,78,30.03,10.0,WNW,9.2,-,N/A,,Overcast,300,2014-02-01 15:35:00
9:55 AM,-2.2,-7.6,78,30.04,10.0,WNW,6.9,-,N/A,,Overcast,300,2014-02-01 15:55:00
10:15 AM,-0.4,-5.8,78,30.04,10.0,WNW,15.0,-,N/A,,Overcast,300,2014-02-01 16:15:00
10:35 AM,-0.4,-5.8,78,30.04,10.0,WNW,13.8,-,N/A,,Overcast,300,2014-02-01 16:35:00
10:55 AM,-0.4,-5.8,78,30.05,10.0,WNW,12.7,-,N/A,,Overcast,300,2014-02-01 16:55:00
11:15 AM,-0.4,-5.8,78,30.05,10.0,WNW,11.5,-,N/A,,Overcast,300,2014-02-01 17:15:00
11:35 AM,-0.4,-4.0,85,30.05,10.0,NW,6.9,-,N/A,,Overcast,310,2014-02-01 17:35:00
11:55 AM,1.4,-4.0,78,30.06,10.0,NW,13.8,-,N/A,,Overcast,310,2014-02-01 17:55:00
12:15 PM,1.4,-4.0,78,30.06,10.0,WNW,12.7,-,N/A,,Overcast,300,2014-02-01 18:15:00
12:35 PM,3.2,-2.2,78,30.06,10.0,WNW,11.5,-,N/A,,Overcast,300,2014-02-01 18:35:00
12:55 PM,5.0,-2.2,72,30.06,10.0,WNW,12.7,-,N/A,,Overcast,300,2014-02-01 18:55:00
1:15 PM,3.2,-2.2,78,30.06,10.0,West,12.7,-,N/A,,Overcast,280,2014-02-01 19:15:00
1:35 PM,5.0,-2.2,72,30.06,9.0,West,11.5,-,N/A,,Overcast,280,2014-02-01 19:35:00
1:55 PM,5.0,-0.4,78,30.06,10.0,West,15.0,-,N/A,,Overcast,280,2014-02-01 19:55:00
2:15 PM,5.0,-0.4,78,30.05,10.0,West,15.0,-,N/A,,Overcast,270,2014-02-01 20:15:00
2:35 PM,5.0,-0.4,78,30.05,10.0,West,15.0,-,N/A,,Overcast,280,2014-02-01 20:35:00
2:55 PM,5.0,-2.2,72,30.05,10.0,WNW,16.1,-,N/A,,Overcast,290,2014-02-01 20:55:00
3:15 PM,5.0,-0.4,78,30.05,10.0,West,18.4,-,N/A,,Overcast,280,2014-02-01 21:15:00
3:35 PM,5.0,-0.4,78,30.06,10.0,West,16.1,-,N/A,,Overcast,280,2014-02-01 21:35:00
3:55 PM,5.0,-2.2,72,30.07,10.0,WNW,18.4,-,N/A,,Overcast,290,2014-02-01 21:55:00
4:15 PM,5.0,-2.2,72,30.07,10.0,WNW,17.3,-,N/A,,Overcast,290,2014-02-01 22:15:00
4:35 PM,3.2,-4.0,72,30.07,10.0,WNW,18.4,-,N/A,,Overcast,290,2014-02-01 22:35:00
5:15 PM,1.4,-4.0,78,30.08,10.0,West,13.8,-,N/A,,Overcast,280,2014-02-01 23:15:00
5:35 PM,1.4,-4.0,78,30.08,10.0,West,15.0,-,N/A,,Overcast,280,2014-02-01 23:35:00
5:55 PM,1.4,-2.2,85,30.08,10.0,West,13.8,-,N/A,,Overcast,270,2014-02-01 23:55:00
6:15 PM,1.4,-2.2,85,30.09,10.0,West,12.7,-,N/A,,Overcast,270,2014-02-02 00:15:00
6:35 PM,1.4,-2.2,85,30.08,10.0,West,10.4,-,N/A,,Overcast,270,2014-02-02 00:35:00
6:55 PM,1.4,-4.0,78,30.09,10.0,West,9.2,-,N/A,,Overcast,270,2014-02-02 00:55:00
7:15 PM,-0.4,-4.0,85,30.09,9.0,West,8.1,-,N/A,,Overcast,260,2014-02-02 01:15:00
7:35 PM,-2.2,-7.6,78,30.09,10.0,WSW,8.1,-,N/A,,Mostly Cloudy,250,2014-02-02 01:35:00
7:55 PM,-4.0,-7.6,85,30.09,10.0,West,8.1,-,N/A,,Mostly Cloudy,260,2014-02-02 01:55:00
8:15 PM,-4.0,-9.4,78,30.09,10.0,WSW,8.1,-,N/A,,Overcast,240,2014-02-02 02:15:00
8:35 PM,-4.0,-9.4,78,30.08,10.0,WSW,8.1,-,N/A,,Mostly Cloudy,250,2014-02-02 02:35:00
8:55 PM,-5.8,-9.4,84,30.08,10.0,West,8.1,-,N/A,,Mostly Cloudy,260,2014-02-02 02:55:00
9:15 PM,-7.6,-11.2,84,30.08,10.0,West,9.2,-,N/A,,Mostly Cloudy,280,2014-02-02 03:15:00
9:35 PM,-5.8,-9.4,84,30.08,9.0,West,6.9,-,N/A,,Overcast,270,2014-02-02 03:35:00
9:55 PM,-4.0,-9.4,78,30.08,10.0,WSW,5.8,-,N/A,,Mostly Cloudy,240,2014-02-02 03:55:00
10:15 PM,-5.8,-9.4,84,30.08,10.0,West,5.8,-,N/A,,Scattered Clouds,260,2014-02-02 04:15:00
10:35 PM,-7.6,-11.2,84,30.08,10.0,WSW,5.8,-,N/A,,Scattered Clouds,250,2014-02-02 04:35:00
10:55 PM,-7.6,-9.4,92,30.07,10.0,West,5.8,-,N/A,,Clear,260,2014-02-02 04:55:00
11:15 PM,-7.6,-9999,N/A,30.07,10.0,West,9.2,-,N/A,,Partly Cloudy,280,2014-02-02 05:15:00
11:35 PM,-7.6,-11.2,84,30.07,10.0,WNW,6.9,-,N/A,,Scattered Clouds,290,2014-02-02 05:35:00
11:55 PM,-7.6,-11.2,84,30.07,10.0,WNW,6.9,-,N/A,,Overcast,290,2014-02-02 05:55:00